Location: Bailleul
(50.3375°N, 2.8513°E)
Time: 20:32:00
(UTC+00:00)

DMSP 5D-2 F13 DEB - Visible Passes

Search period start: 24 January 2022 00:00
Search period end: 03 February 2022 00:00
Orbit: 807 x 841 km, 98.7° (Epoch: 23 January)

Date Brightness Start Highest point End Pass type
(mag) Time Alt. Az. Time Alt. Az. Time Alt. Az.
24 Jan ? 05:30:26 10° NE 05:33:42 16° E 05:36:58 10° SE visible
24 Jan ? 16:56:59 10° SE 17:02:00 41° ENE 17:07:05 10° N visible
24 Jan ? 18:37:16 10° SSW 18:42:13 36° W 18:47:14 10° NNW visible
25 Jan ? 05:12:33 10° ENE 05:13:46 11° E 05:14:59 10° E visible
25 Jan ? 06:49:32 10° NNE 06:55:00 65° ESE 07:00:25 10° S visible
25 Jan ? 18:17:15 10° S 18:22:30 51° W 18:27:49 10° NNW visible
26 Jan ? 06:30:03 10° NNE 06:35:19 46° E 06:40:33 10° S visible
26 Jan ? 17:57:27 10° S 18:02:50 73° WSW 18:08:18 10° NNW visible
26 Jan ? 19:41:54 10° WSW 19:43:59 12° W 19:46:04 10° WNW visible
27 Jan ? 06:10:41 10° NNE 06:15:36 33° E 06:20:27 10° SSE visible
27 Jan ? 17:37:49 10° SSE 17:43:14 81° ENE 17:48:43 10° NNW visible
27 Jan ? 19:20:30 10° SW 19:24:04 18° W 19:27:41 10° NW visible
28 Jan ? 05:51:28 10° NE 05:55:48 23° E 06:00:05 10° SE visible
28 Jan ? 17:18:23 10° SSE 17:23:41 59° ENE 17:29:03 10° N visible
28 Jan ? 18:59:49 10° SSW 19:04:13 25° W 19:08:41 10° NW visible
29 Jan ? 05:32:33 10° NE 05:35:56 17° E 05:39:18 10° SE visible
29 Jan ? 18:39:31 10° SSW 18:44:26 35° W 18:49:26 10° NNW visible
30 Jan ? 05:14:26 10° ENE 05:16:01 11° E 05:17:35 10° E visible
30 Jan ? 06:51:44 10° NNE 06:57:13 68° ESE 07:02:38 10° S visible
30 Jan ? 18:19:28 10° S 18:24:42 49° W 18:30:01 10° NNW visible
31 Jan ? 06:32:14 10° NNE 06:37:33 48° E 06:42:46 10° S visible
31 Jan ? 17:59:38 10° S 18:05:02 70° WSW 18:10:31 10° NNW visible
31 Jan ? 19:44:22 10° WSW 19:46:13 12° W 19:48:04 10° WNW visible
01 Feb ? 06:12:51 10° NNE 06:17:49 34° E 06:22:42 10° SSE visible
01 Feb ? 17:39:59 10° SSE 17:45:25 84° ENE 17:50:56 10° NNW visible
01 Feb ? 19:22:49 10° SW 19:26:17 17° W 19:29:48 10° NW visible
02 Feb ? 05:53:37 10° NE 05:58:01 24° E 06:02:22 10° SE visible
02 Feb ? 17:20:32 10° SSE 17:25:52 61° ENE 17:31:16 10° N visible
02 Feb ? 19:02:05 10° SW 19:06:26 24° W 19:10:50 10° NW visible
